Tracking 20041 objects as of 22-Nov-2019
Live streaming from Space Station
objects crossing your sky now

COSMOS 1995

Track COSMOS 1995 now!
10-day predictions
COSMOS 1995 is classified as:


NORAD ID: 19786
Int'l Code: 1989-009B
Perigee: 1,418.1 km
Apogee: 1,424.4 km
Inclination: 82.6 °
Period: 114.1 minutes
Semi major axis: 7792 km
RCS: 1.2185 m2 (large)
Launch date: February 10, 1989
Source: Commonwealth of Independent States (former USSR) (CIS)
Launch site: PLESETSK MISSILE AND SPACE COMPLEX (PKMTR)
aabbcc
Your satellite tracking list
Your tracking list is empty




NASA's NSSDC Master Catalog

Two Line Element Set (TLE):
1 19786U 89009B   19325.52619875 +.00000023 +00000-0 +71575-4 0  9994
2 19786 082.6202 110.4555 0004056 146.7701 280.9313 12.62152368417616
Source of the keplerian elements: AFSPC